Location: NJAA Observatory
(40.6819°N, 74.8979°W)
Time: 19:41:09
(UTC-04:00)

Landsat 5 - Visible Passes

Search period start: 22 May 2015 00:00
Search period end: 01 June 2015 00:00
Orbit: 531 x 663 km, 98.0° (Epoch: 22 May)

Date Brightness Start Highest point End Pass type
(mag) Time Alt. Az. Time Alt. Az. Time Alt. Az.
22 May 5.8 00:53:01 17° WNW 00:53:01 17° WNW 00:54:44 10° NW visible
22 May 4.4 23:26:34 40° NE 23:26:34 40° NE 23:29:57 10° N visible
23 May 6.0 01:03:15 14° WNW 01:03:15 14° WNW 01:04:22 10° NW visible
23 May 4.1 23:36:48 49° NE 23:36:48 49° NE 23:40:11 10° N visible
24 May 6.2 01:13:29 10° WNW 01:13:29 10° WNW 01:13:43 10° WNW visible
24 May 4.0 23:47:01 56° NNE 23:47:01 56° NNE 23:50:21 10° N visible
25 May 4.0 23:57:15 56° NNW 23:57:15 56° NNW 00:00:30 10° NNW visible
26 May 5.8 22:30:47 11° ENE 22:31:17 11° ENE 22:32:29 10° NE visible
27 May 4.2 00:07:28 49° NW 00:07:28 49° NW 00:10:36 10° NNW visible
27 May 5.6 22:41:00 14° ENE 22:41:19 14° ENE 22:43:31 10° NNE visible
28 May 4.5 00:17:40 39° WNW 00:17:40 39° WNW 00:20:37 10° NNW visible
28 May 5.4 22:51:12 17° ENE 22:51:22 17° ENE 22:54:08 10° NNE visible
29 May 4.9 00:27:53 31° WNW 00:27:53 31° WNW 00:30:36 10° NNW visible
29 May 5.1 23:01:24 22° ENE 23:01:26 22° ENE 23:04:35 10° NNE visible
30 May 5.2 00:38:05 25° WNW 00:38:05 25° WNW 00:40:29 10° NW visible
30 May 4.8 23:11:36 27° ENE 23:11:36 27° ENE 23:14:56 10° NNE visible
31 May 5.5 00:48:17 20° WNW 00:48:17 20° WNW 00:50:18 10° NW visible
31 May 4.4 23:21:48 35° ENE 23:21:48 35° ENE 23:25:13 10° N visible
